Location: Unspecified
(0.0000°N, 0.0000°E)
Time: 12:35:25
(UTC+00:00)

OBJECT M - Pass Details

Date: 26 February 2026
Orbit: 539 x 546 km, 97.4° (Epoch: 8 March)

Event Time Altitude Azimuth Distance (km) Brightness Sun altitude
Rises 04:38:48 0° 179° (S) 2,710 ? -23.2°
Reaches altitude 10° 04:40:59 10° 185° (S) 1,814 ? -22.7°
Enters shadow 04:42:30 22° 195° (SSW) 1,234 ? -22.3°
